GW0206 Weather Reports


time (UTC)temp
C
wind
direction
speed
KPH
gust
KPH
rain 1hr
cm
rain 24hr
cm
rain mn
cm
humidity
%
barometer
mb
20260510181514 16 154 6.4 16.1 0.00 1.24 0.00 49 1017.1
20260510181007 16 153 4.8 16.1 0.00 1.24 0.00 49 1017.1
20260510180507 16 244 3.2 14.5 0.00 1.24 0.00 43 1017.2
20260510180017 16 206 3.2 9.7 0.00 1.24 0.00 47 1017.3
20260510175506 16 166 3.2 14.5 0.00 1.24 0.00 52 1017.2
20260510175008 16 120 4.8 14.5 0.00 1.24 0.00 52 1017.2
20260510174517 16 109 3.2 12.9 0.00 1.24 0.00 58 1017.4
20260510174009 16 96 0.0 14.5 0.00 1.24 0.00 51 1017.4
20260510173513 16 46 4.8 14.5 0.00 1.24 0.00 55 1017.5
20260510173032 16 161 3.2 14.5 0.00 1.24 0.00 52 1017.5
20260510172506 16 163 4.8 14.5 0.00 1.24 0.00 48 1017.6
20260510172012 16 225 3.2 12.9 0.00 1.24 0.00 55 1017.7
20260510171535 15 179 1.6 12.9 0.00 1.24 0.00 53 1017.7
20260510171002 15 226 6.4 16.1 0.00 1.24 0.00 57 1017.6
20260510170502 15 188 8.0 20.9 0.00 1.24 0.00 50 1017.6
20260510170003 15 204 9.7 20.9 0.00 1.24 0.00 51 1017.6
20260510165502 15 190 4.8 12.9 0.00 1.24 0.00 54 1017.6
20260510165003 15 128 3.2 19.3 0.00 1.24 0.00 59 1017.6
20260510164503 15 238 6.4 19.3 0.00 1.24 0.00 52 1017.5
20260510164004 15 252 8.0 17.7 0.00 1.24 0.00 55 1017.6
20260510163502 14 202 6.4 16.1 0.00 1.24 0.00 56 1017.5
20260510163004 14 213 8.0 16.1 0.00 1.24 0.00 54 1017.5
20260510162503 14 261 4.8 12.9 0.00 1.24 0.00 56 1017.5
20260510162003 14 202 1.6 12.9 0.00 1.24 0.00 65 1017.5
20260510161505 14 132 3.2 12.9 0.00 1.24 0.00 60 1017.5
20260510161002 13 165 3.2 14.5 0.00 1.24 0.00 64 1017.4
20260510160503 13 156 6.4 14.5 0.00 1.24 0.00 64 1017.4
20260510160012 13 155 4.8 11.3 0.00 1.24 0.00 60 1017.4
20260510155502 13 167 1.6 14.5 0.00 1.24 0.00 63 1017.3
20260510155002 13 186 4.8 14.5 0.00 1.24 0.00 61 1017.4
20260510154504 13 197 3.2 12.9 0.00 1.24 0.00 62 1017.4
20260510154002 13 264 1.6 12.9 0.00 1.24 0.00 64 1017.2
20260510153502 13 150 1.6 9.7 0.00 1.24 0.00 64 1017.2
20260510153009 13 211 1.6 16.1 0.00 1.24 0.00 61 1017.2
20260510152503 13 119 3.2 16.1 0.00 1.24 0.00 65 1017.2
20260510152002 12 174 1.6 16.1 0.00 1.24 0.00 68 1017.0
20260510151504 12 188 8.0 16.1 0.00 1.24 0.00 61 1016.8
20260510151004 12 248 8.0 17.7 0.00 1.24 0.00 64 1016.5
20260510150503 12 238 8.0 17.7 0.00 1.24 0.00 64 1016.5
20260510150004 12 203 9.7 17.7 0.00 1.24 0.00 66 1016.5
20260510145504 12 225 8.0 19.3 0.00 1.24 0.00 69 1016.6
20260510145005 11 207 9.7 19.3 0.00 1.24 0.00 69 1016.5
20260510144508 11 149 8.0 14.5 0.00 1.24 0.00 73 1016.4
20260510144004 12 161 6.4 14.5 0.00 1.24 0.00 78 1016.3
20260510143502 11 198 4.8 14.5 0.00 1.24 0.00 75 1016.3
20260510143005 11 191 3.2 14.5 0.00 1.24 0.00 78 1016.3
20260510142505 11 185 3.2 14.5 0.00 1.24 0.00 79 1016.4
20260510142002 11 212 6.4 11.3 0.00 1.24 0.00 78 1016.4
20260510141504 11 192 4.8 14.5 0.00 1.24 0.00 80 1016.3
20260510141004 10 207 4.8 16.1 0.00 1.24 0.00 79 1016.2
20260510140503 10 223 6.4 16.1 0.00 1.24 0.00 76 1016.3
20260510140010 10 221 8.0 16.1 0.00 1.24 0.00 77 1016.2
20260510135504 10 187 8.0 16.1 0.00 1.24 0.00 77 1016.1
20260510135003 10 175 6.4 16.1 0.00 1.24 0.00 79 1016.0
20260510134504 10 206 4.8 11.3 0.00 1.24 0.00 82 1016.1
20260510134003 10 201 4.8 12.9 0.00 1.24 0.00 82 1016.0
20260510133503 9 202 6.4 12.9 0.00 1.24 0.00 83 1016.0
20260510133008 9 204 1.6 9.7 0.00 1.24 0.00 86 1016.1
20260510132506 9 213 3.2 9.7 0.00 1.24 0.00 86 1016.0
20260510132006 8 208 3.2 9.7 0.00 1.24 0.00 87 1015.9
20260510131508 8 214 4.8 12.9 0.00 1.24 0.00 86 1015.7
20260510131004 8 205 4.8 12.9 0.00 1.24 0.00 86 1015.6
20260510130504 8 197 4.8 11.3 0.00 1.24 0.00 86 1015.5
20260510130016 8 217 4.8 11.3 0.00 1.24 0.00 87 1015.3
20260510125503 8 214 6.4 9.7 0.00 1.24 0.00 87 1015.2
20260510125005 8 193 3.2 9.7 0.00 1.24 0.00 89 1015.1
20260510124508 8 200 3.2 9.7 0.00 1.24 0.00 88 1015.1
20260510124005 8 211 1.6 9.7 0.00 1.24 0.00 88 1015.0
20260510123504 8 240 4.8 9.7 0.00 1.24 0.00 89 1015.0
20260510123007 8 213 4.8 9.7 0.00 1.24 0.00 89 1015.1
20260510122505 8 208 0.0 6.4 0.00 1.24 0.00 89 1015.0
20260510122009 8 206 3.2 8.0 0.00 1.24 0.00 89 1014.8
20260510121508 8 197 3.2 8.0 0.00 1.24 0.00 90 1014.7
20260510121005 8 183 0.0 3.2 0.00 1.24 0.00 91 1014.6
20260510120505 8 225 0.0 4.8 0.00 1.24 0.00 91 1014.5
20260510120014 8 185 0.0 4.8 0.00 1.24 0.00 90 1014.4
20260510115502 8 218 1.6 8.0 0.00 1.24 0.00 90 1014.2
20260510115002 8 188 3.2 8.0 0.00 1.24 0.00 90 1014.1
20260510114513 8 229 3.2 8.0 0.00 1.24 0.00 90 1013.9
20260510114003 8 236 1.6 11.3 0.00 1.24 0.00 90 1013.8
20260510113502 8 192 4.8 11.3 0.00 1.24 0.00 90 1013.7
20260510113013 8 199 3.2 11.3 0.00 1.24 0.00 91 1013.6
20260510112504 8 209 3.2 14.5 0.00 1.24 0.00 91 1013.6
20260510112005 8 212 8.0 14.5 0.00 1.24 0.00 92 1013.3
20260510111515 8 199 4.8 11.3 0.00 1.24 0.00 93 1013.1
20260510111006 8 216 3.2 11.3 0.00 1.24 0.00 93 1013.1
20260510110510 8 198 3.2 11.3 0.00 1.24 0.00 93 1012.7
20260510110024 8 201 4.8 11.3 0.00 1.24 0.00 93 1012.7
20260510105507 8 210 3.2 9.7 0.00 1.24 0.00 94 1012.8
20260510105008 8 221 4.8 9.7 0.00 1.24 0.00 94 1012.7
20260510104506 8 209 3.2 9.7 0.00 1.24 0.00 94 1012.5
20260510104006 8 195 3.2 8.0 0.00 1.24 0.00 95 1012.4
20260510103502 8 191 3.2 8.0 0.00 1.24 0.00 95 1012.3
20260510103008 8 177 1.6 9.7 0.00 1.24 0.00 95 1012.2
20260510102505 8 205 3.2 9.7 0.00 1.24 0.00 95 1012.0
20260510102007 8 194 3.2 9.7 0.00 1.24 0.00 95 1012.0
20260510101523 8 200 1.6 9.7 0.00 1.24 0.00 95 1012.1
20260510101001 8 194 1.6 4.8 0.00 1.24 0.00 94 1012.0
20260510100503 8 194 1.6 4.8 0.00 1.24 0.00 94 1012.0
20260510100023 8 194 1.6 4.8 0.00 1.24 0.00 94 1012.0
20260510095511 8 197 0.0 6.4 0.00 1.24 0.00 94 1011.9
20260510095002 8 200 3.2 6.4 0.00 1.24 0.00 94 1011.8
20260510094518 8 209 1.6 4.8 0.00 1.24 0.00 94 1011.8
20260510094008 9 209 0.0 8.0 0.00 1.24 0.00 94 1011.8
20260510093511 9 211 1.6 8.0 0.00 1.24 0.00 94 1011.6
20260510093014 9 196 3.2 8.0 0.00 1.27 0.00 94 1011.5
20260510092507 9 205 3.2 8.0 0.00 1.27 0.00 95 1011.3
20260510092012 9 205 3.2 8.0 0.00 1.27 0.00 95 1011.1
20260510091511 9 219 3.2 9.7 0.00 1.27 0.00 95 1011.2
20260510091006 10 221 3.2 14.5 0.00 1.27 0.00 95 1011.1
20260510090504 10 206 1.6 14.5 0.00 1.30 0.00 95 1011.1
20260510090020 10 194 6.4 12.9 0.00 1.30 0.00 95 1011.0
20260510085505 10 216 6.4 12.9 0.00 1.32 0.00 96 1011.0
20260510085007 10 223 4.8 12.9 0.00 1.32 0.00 96 1010.9
20260510084519 10 170 3.2 14.5 0.00 1.32 0.00 96 1010.8
20260510084010 10 172 6.4 14.5 0.00 1.32 0.00 96 1010.6
20260510083508 10 182 4.8 14.5 0.00 1.37 0.00 96 1010.4
20260510083024 10 194 3.2 12.9 0.00 1.37 0.00 96 1010.6
20260510082508 10 188 3.2 12.9 0.00 1.40 0.00 96 1010.5
20260510082006 10 185 3.2 9.7 0.00 1.42 0.00 96 1010.5
20260510081518 10 152 3.2 11.3 0.00 1.42 0.00 96 1010.5
20260510081003 10 165 3.2 11.3 0.00 1.45 0.00 96 1010.4
20260510080503 10 178 1.6 9.7 0.00 1.45 0.00 96 1010.2
20260510080011 10 161 3.2 9.7 0.00 1.47 0.00 96 1010.1
20260510075503 10 180 1.6 6.4 0.00 1.47 0.00 97 1010.1
20260510075004 10 178 0.0 3.2 0.00 1.47 0.00 96 1010.0
20260510074514 10 178 0.0 4.8 0.00 1.52 0.00 96 1009.9
20260510074005 10 178 1.6 4.8 0.00 1.52 0.00 96 1009.9
20260510073502 10 129 0.0 6.4 0.00 1.55 0.00 96 1009.7
20260510073004 10 118 1.6 6.4 0.00 1.57 0.00 96 1009.7
20260510072503 10 113 1.6 4.8 0.00 1.57 0.00 96 1009.8
20260510072005 10 113 1.6 6.4 0.00 1.60 0.00 96 1009.7
20260510071503 10 115 3.2 6.4 0.00 1.60 0.00 96 1009.6
20260510071002 10 153 3.2 6.4 0.00 1.60 0.00 95 1009.6
20260510070503 10 92 1.6 6.4 0.00 1.65 0.00 95 1009.6
20260510070003 10 151 0.0 4.8 0.00 1.65 0.00 95 1009.5
20260510065504 10 116 0.0 3.2 0.00 1.68 0.00 95 1009.5
20260510065006 10 116 1.6 4.8 0.00 1.70 0.00 95 1009.6
20260510064527 10 116 1.6 4.8 0.00 1.73 0.00 95 1009.6
20260510064003 11 83 0.0 3.2 0.00 1.78 0.00 95 1009.6
20260510063504 11 63 1.6 4.8 0.00 1.78 0.00 95 1009.5
20260510063020 11 90 1.6 8.0 0.00 1.80 0.00 95 1009.4
20260510062502 11 69 1.6 11.3 0.00 1.85 0.00 95 1009.3
20260510062003 11 93 1.6 11.3 0.00 1.93 0.00 95 1009.2
20260510061514 11 87 1.6 8.0 0.00 1.96 0.00 95 1009.1
20260510061003 11 98 3.2 14.5 0.00 2.01 0.00 96 1009.1
20260510060522 11 61 6.4 14.5 0.00 2.06 0.00 95 1009.1
20260510060010 11 284 1.6 6.4 0.00 2.06 0.00 96 1009.0
20260510055503 11 292 0.0 4.8 0.00 2.08 0.00 96 1008.9
20260510055003 11 341 0.0 4.8 0.00 2.11 0.00 95 1008.9
20260510054508 11 331 0.0 4.8 0.00 2.13 0.00 95 1008.9
20260510054003 11 338 1.6 6.4 0.00 2.16 0.00 95 1009.0
20260510053503 11 26 3.2 11.3 0.00 2.18 0.00 95 1009.0
20260510053017 11 17 3.2 17.7 0.00 2.21 0.00 96 1009.1
20260510052504 11 42 8.0 27.4 0.00 2.21 0.00 96 1009.1
20260510052008 11 53 11.3 27.4 0.00 2.21 0.00 96 1009.3
20260510051522 11 27 4.8 16.1 0.00 2.21 0.00 96 1009.3
20260510051003 11 28 6.4 14.5 0.00 2.21 0.00 96 1009.3
20260510050504 11 28 4.8 8.0 0.00 2.21 0.00 96 1009.2
20260510050004 11 348 3.2 6.4 0.00 2.21 0.00 95 1009.0
20260510045504 11 276 3.2 6.4 0.00 2.21 0.00 95 1008.9
20260510045007 11 282 1.6 6.4 0.00 2.24 0.00 95 1008.9
20260510044515 11 308 1.6 4.8 0.00 2.24 0.00 96 1008.9
20260510044004 11 11 0.0 6.4 0.00 2.24 0.00 95 1008.9
20260510043504 11 360 1.6 6.4 0.00 2.24 0.00 95 1008.8
20260510043011 11 346 0.0 6.4 0.13 2.24 0.00 96 1008.9
20260510042504 11 350 1.6 6.4 0.28 2.24 0.00 95 1008.9
20260510042010 11 242 0.0 4.8 0.33 2.24 0.00 95 1009.1
20260510041515 11 242 1.6 4.8 0.33 2.26 0.00 95 1009.2
20260510041004 11 301 0.0 4.8 0.33 2.26 0.00 95 1009.0
20260510040507 11 334 1.6 4.8 0.36 2.26 0.00 95 1008.7
20260510040023 11 355 0.0 3.2 0.36 2.29 0.00 95 1008.7
20260510035504 12 355 0.0 4.8 0.36 2.29 2.29 95 1008.7
20260510035008 12 360 1.6 4.8 0.38 2.29 2.29 95 1008.7
20260510034513 12 32 3.2 6.4 0.58 2.29 2.29 95 1008.8
20260510034004 12 347 3.2 14.5 0.58 2.29 2.29 95 1008.6
20260510033508 12 56 8.0 14.5 0.58 2.29 2.29 95 1009.1
20260510033020 12 76 1.6 9.7 0.46 2.18 2.16 95 1008.9
20260510032503 12 117 1.6 9.7 0.30 2.03 2.01 95 1009.0
20260510032006 12 106 4.8 8.0 0.25 1.98 1.96 95 1008.5
20260510031516 12 68 4.8 9.7 0.25 1.98 1.96 95 1008.6
20260510031006 12 44 6.4 9.7 0.25 1.98 1.96 95 1008.7
20260510030513 12 40 3.2 17.7 0.23 1.96 1.93 95 1008.6
20260510030022 12 88 8.0 27.4 0.23 1.96 1.93 95 1008.9
20260510025508 12 27 12.9 27.4 0.23 1.98 1.93 95 1009.1
20260510025007 12 56 12.9 20.9 0.20 1.98 1.91 95 1009.4
20260510024513 12 118 9.7 14.5 0.00 1.78 1.70 95 1009.3
20260510024005 12 24 1.6 6.4 0.00 1.78 1.70 95 1008.2
20260510023508 12 30 1.6 8.0 0.00 1.78 1.70 95 1008.1
20260510023030 12 321 3.2 8.0 0.00 1.78 1.70 95 1007.9
20260510022504 12 18 3.2 8.0 0.00 1.78 1.70 95 1007.9
20260510022004 12 324 1.6 6.4 0.00 1.78 1.70 95 1007.9
20260510021519 12 5 0.0 6.4 0.00 1.80 1.70 95 1008.0
20260510021004 12 360 1.6 6.4 0.00 1.80 1.70 95 1007.9
20260510020507 12 360 3.2 8.0 0.00 1.80 1.70 94 1008.0
20260510020020 12 5 3.2 8.0 0.00 1.80 1.70 94 1008.1
20260510015507 12 5 3.2 8.0 0.00 1.80 1.70 94 1008.1
20260510015003 12 5 3.2 8.0 0.00 1.80 1.70 94 1008.1
20260510014519 12 5 1.6 6.4 0.03 1.80 1.70 94 1008.1
20260510014006 12 355 0.0 6.4 0.03 1.83 1.70 94 1008.0
20260510013508 12 337 1.6 8.0 0.05 1.83 1.70 94 1007.8
20260510013017 12 13 4.8 8.0 0.08 1.83 1.70 94 1007.8
20260510012508 12 28 3.2 8.0 0.13 1.83 1.70 94 1007.8
20260510012010 12 24 1.6 6.4 0.18 1.83 1.70 94 1007.7
20260510011528 12 27 1.6 8.0 0.30 1.83 1.70 94 1007.5
20260510011006 12 309 3.2 9.7 0.43 1.83 1.70 94 1007.3
20260510010504 12 311 3.2 9.7 0.51 1.83 1.70 93 1007.5
20260510010016 12 34 1.6 9.7 0.66 1.85 1.70 93 1007.8
20260510005504 12 47 4.8 9.7 0.66 1.85 1.70 93 1007.9
20260510005007 12 43 1.6 8.0 0.66 1.85 1.70 93 1007.8
20260510004522 12 59 3.2 9.7 0.64 1.83 1.68 92 1007.8
20260510004009 12 144 0.0 12.9 0.64 1.83 1.68 92 1007.7
20260510003508 12 131 3.2 12.9 0.61 1.83 1.65 91 1007.8
20260510003022 12 130 3.2 20.9 0.58 1.80 1.63 91 1007.8
20260510002510 12 115 6.4 24.1 0.53 1.75 1.57 90 1007.9
20260510002012 13 120 8.0 25.7 0.48 1.70 1.52 88 1008.1
20260510001519 13 123 6.4 25.7 0.36 1.57 1.40 86 1008.0
20260510001008 14 158 8.0 19.3 0.23 1.45 1.27 83 1007.4
20260510000511 15 159 6.4 22.5 0.15 1.37 1.19 78 1007.3
20260510000016 17 156 9.7 22.5 0.00 1.24 1.04 69 1007.1
20260509235506 18 167 3.2 27.4 0.00 1.24 1.04 67 1006.6
20260509235012 18 19 11.3 27.4 0.00 1.24 1.04 65 1005.8
20260509234529 18 48 14.5 27.4 0.00 1.24 1.04 62 1005.7
20260509234006 18 64 11.3 24.1 0.00 1.24 1.04 63 1005.5
20260509233506 18 60 12.9 30.6 0.00 1.24 1.04 62 1005.5
20260509233022 18 34 16.1 30.6 0.00 1.24 1.04 62 1005.4
20260509232508 18 71 9.7 30.6 0.00 1.24 1.04 62 1005.4
20260509232012 18 39 14.5 29.0 0.00 1.24 1.04 62 1005.4
20260509231524 19 119 12.9 29.0 0.00 1.24 1.04 61 1005.2
20260509231007 19 65 14.5 41.8 0.00 1.24 1.04 60 1005.2
20260509230506 19 44 17.7 41.8 0.00 1.24 1.04 59 1005.1
20260509230022 20 59 17.7 37.0 0.00 1.24 1.04 59 1005.0
20260509225512 20 63 19.3 37.0 0.00 1.24 1.04 58 1005.0
20260509225015 20 28 20.9 37.0 0.00 1.24 1.04 58 1005.1
20260509224530 20 61 19.3 30.6 0.00 1.24 1.04 57 1005.0
20260509224009 20 44 16.1 30.6 0.00 1.24 1.04 58 1005.0
20260509223515 20 86 14.5 37.0 0.00 1.24 1.04 60 1004.9
20260509223020 20 31 20.9 38.6 0.00 1.24 1.04 58 1005.0
20260509222502 20 5 19.3 38.6 0.00 1.24 1.04 59 1005.0
20260509222002 20 33 16.1 30.6 0.00 1.24 1.04 58 1005.0
20260509221503 21 5 16.1 33.8 0.00 1.24 1.04 58 1005.1
20260509221002 20 44 11.3 33.8 0.00 1.24 1.04 59 1005.0
20260509220505 20 60 12.9 27.4 0.00 1.24 1.04 59 1005.0
20260509220004 20 28 12.9 41.8 0.00 1.24 1.04 58 1005.1
20260509215502 20 101 19.3 41.8 0.00 1.24 1.04 57 1005.0
20260509215002 20 36 19.3 38.6 0.00 1.24 1.04 57 1005.0
20260509214504 20 37 12.9 29.0 0.00 1.24 1.04 59 1004.9
20260509214002 20 348 19.3 29.0 0.00 1.24 1.04 57 1004.9
20260509213503 21 49 16.1 35.4 0.00 1.24 1.04 57 1005.0
20260509213005 21 65 20.9 35.4 0.00 1.24 1.04 58 1005.1
20260509212501 21 89 17.7 35.4 0.00 1.24 1.04 58 1005.1
20260509212002 20 61 9.7 37.0 0.00 1.24 1.04 61 1005.4
20260509211502 20 36 20.9 37.0 0.00 1.24 1.04 59 1005.5
20260509211003 20 40 20.9 29.0 0.00 1.24 1.04 59 1005.8
20260509210503 20 37 17.7 32.2 0.00 1.24 1.04 58 1005.8
20260509210004 20 53 16.1 35.4 0.00 1.24 1.04 60 1005.9
20260509205503 20 107 19.3 35.4 0.00 1.24 1.04 59 1005.9
20260509205002 20 14 19.3 32.2 0.00 1.24 1.04 58 1005.9
20260509204504 20 22 20.9 33.8 0.00 1.24 1.04 58 1006.0
20260509204002 20 23 16.1 33.8 0.00 1.24 1.04 57 1006.0
20260509203503 21 55 17.7 30.6 0.00 1.24 1.04 59 1006.0
20260509203005 20 63 14.5 27.4 0.00 1.24 1.04 60 1006.1
20260509202503 20 72 9.7 27.4 0.00 1.24 1.04 60 1006.1
20260509202004 20 71 11.3 29.0 0.00 1.24 1.04 60 1006.1
20260509201505 20 92 16.1 40.2 0.00 1.24 1.04 61 1006.2
20260509201003 20 91 22.5 40.2 0.00 1.27 1.04 58 1006.2
20260509200501 20 111 14.5 30.6 0.00 1.27 1.04 62 1006.2
20260509200003 20 60 14.5 30.6 0.00 1.27 1.04 64 1006.4
20260509195504 20 38 19.3 29.0 0.00 1.30 1.04 66 1006.5
20260509195001 18 43 9.7 30.6 0.00 1.30 1.04 69 1006.6
20260509194502 18 71 17.7 30.6 0.00 1.30 1.04 65 1006.7
20260509194003 18 32 14.5 27.4 0.00 1.30 1.04 64 1006.7
20260509193502 18 62 14.5 25.7 0.00 1.30 1.04 63 1006.8
20260509193007 19 55 14.5 27.4 0.00 1.30 1.04 64 1006.9
20260509192502 19 54 17.7 27.4 0.00 1.30 1.04 64 1006.9
20260509192004 19 67 9.7 27.4 0.00 1.30 1.04 68 1006.9
20260509191504 19 34 16.1 35.4 0.00 1.30 1.04 65 1006.9
20260509191003 19 59 22.5 35.4 0.00 1.30 1.04 67 1007.0
20260509190503 18 32 12.9 30.6 0.00 1.30 1.04 69 1007.0
20260509190009 18 26 16.1 27.4 0.00 1.30 1.04 69 1007.1
20260509185502 18 53 17.7 35.4 0.00 1.30 1.04 68 1007.1
20260509185008 18 49 12.9 35.4 0.00 1.30 1.04 65 1007.1
20260509184507 19 103 16.1 35.4 0.00 1.30 1.04 67 1007.1
20260509184002 18 53 22.5 35.4 0.00 1.32 1.04 68 1007.2
20260509183504 19 109 14.5 32.2 0.00 1.32 1.04 64 1007.1
20260509183007 19 57 16.1 27.4 0.00 1.32 1.04 65 1007.0
20260509182504 19 54 14.5 30.6 0.00 1.32 1.04 68 1007.1
20260509182004 18 80 20.9 30.6 0.00 1.32 1.04 67 1007.1